| time (UTC) | temp C | wind direction | speed KPH | gust KPH | rain 1hr cm | rain 24hr cm | rain mn cm | humidity % | barometer mb |
| 20260507113053 | 11 | 60 | 19.3 | 30.6 | 0.00 | 0.00 | 0.00 | 72 | 1019.9 |
| 20260507111552 | 11 | 65 | 22.5 | 32.2 | 0.00 | 0.00 | 0.00 | 71 | 1019.7 |
| 20260507110056 | 11 | 73 | 25.7 | 38.6 | 0.00 | 0.00 | 0.00 | 70 | 1019.7 |
| 20260507104557 | 11 | 61 | 24.1 | 32.2 | 0.00 | 0.00 | 0.00 | 69 | 1019.9 |
| 20260507103100 | 11 | 54 | 22.5 | 29.0 | 0.00 | 0.00 | 0.00 | 68 | 1020.2 |
| 20260507101556 | 12 | 63 | 22.5 | 35.4 | 0.00 | 0.00 | 0.00 | 67 | 1019.7 |
| 20260507100052 | 12 | 65 | 25.7 | 32.2 | 0.00 | 0.00 | 0.00 | 66 | 1019.7 |
| 20260507094554 | 12 | 61 | 19.3 | 29.0 | 0.00 | 0.00 | 0.00 | 64 | 1019.8 |
| 20260507093102 | 12 | 59 | 22.5 | 37.0 | 0.00 | 0.00 | 0.00 | 63 | 1019.8 |
| 20260507091600 | 13 | 62 | 22.5 | 37.0 | 0.00 | 0.00 | 0.00 | 62 | 1019.4 |
| 20260507090056 | 13 | 63 | 27.4 | 38.6 | 0.00 | 0.00 | 0.00 | 61 | 1019.3 |
| 20260507084601 | 14 | 61 | 24.1 | 32.2 | 0.00 | 0.00 | 0.00 | 61 | 1019.2 |
| 20260507083056 | 14 | 59 | 24.1 | 35.4 | 0.00 | 0.00 | 0.00 | 62 | 1018.9 |
| 20260507081559 | 14 | 69 | 22.5 | 32.2 | 0.00 | 0.00 | 0.00 | 63 | 1018.6 |
| 20260507080053 | 14 | 69 | 20.9 | 29.0 | 0.00 | 0.00 | 0.00 | 61 | 1018.8 |
| 20260507074556 | 14 | 81 | 19.3 | 25.7 | 0.00 | 0.00 | 0.00 | 59 | 1018.6 |
| 20260507073057 | 15 | 67 | 17.7 | 22.5 | 0.00 | 0.00 | 0.00 | 61 | 1018.4 |
| 20260507071557 | 15 | 80 | 19.3 | 27.4 | 0.00 | 0.00 | 0.00 | 60 | 1018.3 |
| 20260507063058 | 16 | 81 | 14.5 | 19.3 | 0.00 | 0.00 | 0.00 | 60 | 1017.8 |
| 20260507061604 | 16 | 81 | 11.3 | 16.1 | 0.00 | 0.00 | 0.00 | 57 | 1017.6 |
| 20260507054604 | 16 | 96 | 12.9 | 20.9 | 0.00 | 0.00 | 0.00 | 60 | 1017.3 |
| 20260507053059 | 17 | 106 | 17.7 | 24.1 | 0.00 | 0.00 | 0.00 | 60 | 1016.9 |
| 20260507051601 | 17 | 118 | 17.7 | 20.9 | 0.00 | 0.00 | 0.00 | 55 | 1016.8 |
| 20260507050058 | 17 | 97 | 16.1 | 19.3 | 0.00 | 0.00 | 0.00 | 51 | 1017.0 |
| 20260507044607 | 17 | 91 | 14.5 | 25.7 | 0.00 | 0.00 | 0.00 | 48 | 1017.1 |
| 20260507043057 | 18 | 84 | 17.7 | 25.7 | 0.00 | 0.00 | 0.00 | 48 | 1016.6 |
| 20260507041600 | 18 | 94 | 19.3 | 25.7 | 0.00 | 0.00 | 0.00 | 47 | 1016.3 |
| 20260507040055 | 18 | 107 | 19.3 | 27.4 | 0.00 | 0.00 | 0.00 | 46 | 1015.9 |
| 20260507034613 | 19 | 106 | 19.3 | 29.0 | 0.00 | 0.00 | 0.00 | 45 | 1015.4 |
| 20260507033055 | 19 | 111 | 24.1 | 30.6 | 0.00 | 0.00 | 0.00 | 44 | 1015.4 |
| 20260507031558 | 20 | 97 | 22.5 | 32.2 | 0.00 | 0.00 | 0.00 | 43 | 1015.2 |
| 20260507030101 | 20 | 110 | 25.7 | 37.0 | 0.00 | 0.00 | 0.00 | 42 | 1014.8 |
| 20260507024600 | 21 | 94 | 20.9 | 35.4 | 0.00 | 0.00 | 0.00 | 40 | 1014.5 |
| 20260507023100 | 22 | 101 | 20.9 | 25.7 | 0.00 | 0.00 | 0.00 | 36 | 1014.0 |
| 20260507021556 | 22 | 113 | 19.3 | 25.7 | 0.00 | 0.00 | 0.00 | 34 | 1013.7 |
| 20260507020059 | 22 | 113 | 17.7 | 22.5 | 0.00 | 0.00 | 0.00 | 33 | 1013.7 |
| 20260507014554 | 23 | 121 | 14.5 | 24.1 | 0.00 | 0.00 | 0.00 | 32 | 1013.7 |
| 20260507013100 | 23 | 128 | 17.7 | 27.4 | 0.00 | 0.00 | 0.00 | 30 | 1013.6 |
| 20260507011557 | 24 | 140 | 17.7 | 25.7 | 0.00 | 0.00 | 0.00 | 28 | 1013.4 |
| 20260507010056 | 25 | 136 | 19.3 | 27.4 | 0.00 | 0.00 | 0.00 | 27 | 1013.4 |
| 20260507004601 | 25 | 163 | 11.3 | 19.3 | 0.00 | 0.00 | 0.00 | 26 | 1013.2 |
| 20260507003101 | 25 | 169 | 9.7 | 22.5 | 0.00 | 0.00 | 0.00 | 26 | 1013.2 |
| 20260507001558 | 25 | 121 | 9.7 | 22.5 | 0.00 | 0.00 | 0.00 | 27 | 1012.9 |
| 20260507000058 | 25 | 137 | 11.3 | 24.1 | 0.00 | 0.00 | 0.00 | 27 | 1013.0 |
| 20260506234603 | 25 | 127 | 11.3 | 19.3 | 0.00 | 0.00 | 0.00 | 28 | 1013.2 |
| 20260506233105 | 25 | 155 | 4.8 | 14.5 | 0.00 | 0.00 | 0.00 | 30 | 1013.3 |
| 20260506231558 | 24 | 111 | 17.7 | 22.5 | 0.00 | 0.00 | 0.00 | 30 | 1013.2 |
| 20260506230058 | 24 | 136 | 11.3 | 22.5 | 0.00 | 0.00 | 0.00 | 31 | 1013.3 |
| 20260506224607 | 24 | 90 | 9.7 | 25.7 | 0.00 | 0.00 | 0.00 | 30 | 1013.2 |
| 20260506223057 | 24 | 112 | 4.8 | 9.7 | 0.00 | 0.00 | 0.00 | 31 | 1013.3 |
| 20260506221558 | 24 | 142 | 11.3 | 19.3 | 0.00 | 0.00 | 0.00 | 31 | 1013.3 |
| 20260506220055 | 23 | 82 | 1.6 | 22.5 | 0.00 | 0.00 | 0.00 | 33 | 1013.6 |
| 20260506214609 | 23 | 34 | 4.8 | 14.5 | 0.00 | 0.00 | 0.00 | 33 | 1013.6 |
| 20260506213053 | 23 | 44 | 3.2 | 16.1 | 0.00 | 0.00 | 0.00 | 34 | 1013.8 |
| 20260506211554 | 22 | 73 | 6.4 | 16.1 | 0.00 | 0.00 | 0.00 | 35 | 1014.2 |
| 20260506210057 | 22 | 121 | 11.3 | 17.7 | 0.00 | 0.00 | 0.00 | 36 | 1014.3 |
| 20260506204624 | 22 | 261 | 6.4 | 14.5 | 0.00 | 0.00 | 0.00 | 36 | 1014.4 |
| 20260506203056 | 21 | 124 | 8.0 | 14.5 | 0.00 | 0.00 | 0.00 | 38 | 1014.7 |
| 20260506201558 | 21 | 109 | 9.7 | 22.5 | 0.00 | 0.00 | 0.00 | 40 | 1014.6 |
| 20260506200058 | 20 | 136 | 11.3 | 20.9 | 0.00 | 0.00 | 0.00 | 42 | 1014.8 |
| 20260506194603 | 20 | 122 | 11.3 | 22.5 | 0.00 | 0.00 | 0.00 | 43 | 1014.9 |
| 20260506193059 | 20 | 89 | 11.3 | 19.3 | 0.00 | 0.00 | 0.00 | 45 | 1015.0 |
| 20260506191554 | 18 | 26 | 11.3 | 17.7 | 0.00 | 0.00 | 0.00 | 46 | 1015.2 |
| 20260506190058 | 17 | 94 | 6.4 | 19.3 | 0.00 | 0.00 | 0.00 | 49 | 1015.4 |
| 20260506184556 | 17 | 115 | 11.3 | 24.1 | 0.00 | 0.00 | 0.00 | 52 | 1015.6 |
| 20260506183059 | 16 | 86 | 14.5 | 22.5 | 0.00 | 0.00 | 0.00 | 54 | 1015.6 |
| 20260506181558 | 16 | 27 | 14.5 | 22.5 | 0.00 | 0.00 | 0.00 | 56 | 1015.8 |
| 20260506174553 | 14 | 54 | 11.3 | 24.1 | 0.00 | 0.00 | 0.00 | 60 | 1016.2 |
| 20260506173054 | 13 | 82 | 16.1 | 25.7 | 0.00 | 0.00 | 0.00 | 61 | 1016.5 |
| 20260506171558 | 13 | 53 | 19.3 | 27.4 | 0.00 | 0.00 | 0.00 | 62 | 1016.4 |
| 20260506170056 | 13 | 92 | 17.7 | 25.7 | 0.00 | 0.00 | 0.00 | 63 | 1016.4 |
| 20260506164558 | 12 | 57 | 17.7 | 25.7 | 0.00 | 0.00 | 0.00 | 64 | 1016.5 |
| 20260506163100 | 12 | 65 | 20.9 | 32.2 | 0.00 | 0.00 | 0.00 | 65 | 1016.3 |
| 20260506161604 | 12 | 55 | 20.9 | 29.0 | 0.00 | 0.00 | 0.00 | 67 | 1016.3 |
| 20260506160055 | 11 | 46 | 24.1 | 32.2 | 0.00 | 0.00 | 0.00 | 66 | 1016.2 |
| 20260506154610 | 11 | 60 | 19.3 | 33.8 | 0.00 | 0.00 | 0.00 | 67 | 1016.5 |
| 20260506153054 | 11 | 33 | 22.5 | 33.8 | 0.00 | 0.00 | 0.00 | 67 | 1016.1 |
| 20260506151555 | 11 | 68 | 24.1 | 32.2 | 0.00 | 0.00 | 0.00 | 67 | 1015.9 |
| 20260506150054 | 11 | 22 | 24.1 | 32.2 | 0.00 | 0.00 | 0.00 | 66 | 1015.7 |
| 20260506144602 | 11 | 47 | 20.9 | 30.6 | 0.00 | 0.00 | 0.00 | 67 | 1015.8 |
| 20260506143052 | 11 | 51 | 20.9 | 33.8 | 0.00 | 0.00 | 0.00 | 68 | 1015.4 |
| 20260506141555 | 11 | 48 | 24.1 | 33.8 | 0.00 | 0.00 | 0.00 | 69 | 1015.3 |
| 20260506140100 | 11 | 52 | 29.0 | 35.4 | 0.00 | 0.00 | 0.00 | 68 | 1015.3 |
| 20260506134549 | 11 | 40 | 25.7 | 38.6 | 0.00 | 0.00 | 0.00 | 68 | 1015.0 |
| 20260506133102 | 12 | 53 | 27.4 | 35.4 | 0.00 | 0.00 | 0.00 | 68 | 1014.8 |
| 20260506131555 | 12 | 34 | 24.1 | 33.8 | 0.00 | 0.00 | 0.00 | 68 | 1014.0 |
| 20260506130054 | 12 | 61 | 19.3 | 25.7 | 0.00 | 0.00 | 0.00 | 69 | 1013.7 |
| 20260506124556 | 12 | 22 | 17.7 | 25.7 | 0.00 | 0.00 | 0.00 | 68 | 1013.7 |
| 20260506123052 | 13 | 46 | 16.1 | 22.5 | 0.00 | 0.00 | 0.00 | 67 | 1013.0 |
| 20260506121551 | 14 | 15 | 14.5 | 17.7 | 0.00 | 0.00 | 0.00 | 65 | 1012.9 |
| 20260506120052 | 15 | 25 | 9.7 | 17.7 | 0.00 | 0.00 | 0.00 | 63 | 1012.6 |
| 20260506114558 | 15 | 33 | 14.5 | 19.3 | 0.00 | 0.00 | 0.00 | 61 | 1012.6 |